SCP
0 0 0 0 0 0 0 0 0 0 0 0 0 0 0 0 0 0 0 0 0 0 0 0 0 0 0 0 0 0 0 0 0 0 0 0 0 0 0 0 0 0 0 0 0 0 0 0 0
0 0 0 0 0 0 0 0 0 0 0 0 0 0 0 0 0 0 0 0 0 0 0 0 0 0 0 0 0 0 0 0 0 0 0 0 0 0 0 0 0 0 0 0 0 0 0 0 0
0 0 0 0 0 0 0 0 0 0 0 0 0 0 0 0 0 0 0 0 0 0 0 0 0 0 0 0 0 0 0 0 0 0 0 0 0 0 0 0 0 0 0 0 0 0 0 0 0
0 0 0 0 0 0 0 0 0 0 0 0 0 0 0 0 0 0 0 0 0 0 0 0 0 0 0 0 0 0 0 0 0 0 0 0 0 0 0 0 0 0 0 0 0 0 0 0 0
0 0 0 0 0 0 0 0 0 0 0 0 0 0 0 0 0 0 0 0 0 0 0 0 0 0 0 0 0 0 0 0 0 0 0 0 0 0 0 0 0 0 0 0 0 0 0 0 0
0 0 0 0 0 0 0 0 0 0 0 0 0 0 0 0 0 0 0 0 0 0 0 0 0 0 0 0 0 0 0 0 0 0 0 0 0 0 0 0 0 0 0 0 0 0 0 0 0
0 0 0 0 0 0 0 0 0 0 0 0 0 0 0 0 0 0 0 0 0 0 0 0 0 0 0 0 0 0 0 0 0 0 0 0 0 0 0 0 0 0 0 0 0 0 0 0 0
0 0 0 0 0 0 0 0 0 0 0 0 0 0 0 0 0 0 0 0 0 0 0 0 0 0 0 0 0 0 0 0 0 0 0 0 0 0 0 0 0 0 0 0 0 0 0 0 0
0 0 0 0 0 0 0 0 0 0 0 0 0 0 0 0 0 0 0 0 0 0 0 0 0 0 0 0 0 0 0 0 0 0 0 0 0 0 0 0 0 0 0 0 0 0 0 0 0
0 0 0 0 0 0 0 0 0 0 0 0 0 0 0 0 0 0 0 0 0 0 0 0 0 0 0 0 0 0 0 0 0 0 0 0 0 0 0 0 0 0 0 0 0 0 0 0 0
0 0 0 0 0 0 0 0 0 0 0 0 0 0 0 0 0 0 0 0 0 0 0 0 0 0 0 0 0 0 0 0 0 0 0 0 0 0 0 0 0 0 0 0 0 0 0 0 0
0 0 0 0 0 0 0 0 0 0 0 0 0 0 0 0 0 0 0 0 0 0 0 0 0 0 0 0 0 0 0 0 0 0 0 0 0 0 0 0 0 0 0 0 0 0 0 0 0
0 0 0 0 0 0 0 0 0 0 0 0 0 0 0 0 0 0 0 0 0 0 0 0 0 0 0 0 0 0 0 0 0 0 0 0 0 0 0 0 0 0 0 0 0 0 0 0 0
0 0 0 0 0 0 0 0 0 0 0 0 0 0 0 0 0 0 0 0 0 0 0 0 0 0 0 0 0 0 0 0 0 0 0 0 0 0 0 0 0 0 0 0 0 0 0 0 0
0 0 0 0 0 0 0 0 0 0 0 0 0 0 0 0 0 0 0 0 0 0 0 0 0 0 0 0 0 0 0 0 0 0 0 0 0 0 0 0 0 0 0 0 0 0 0 0 0
0 0 0 0 0 0 0 0 0 0 0 0 0 0 0 0 0 0 0 0 0 0 0 0 0 0 0 0 0 0 0 0 0 0 0 0 0 0 0 0 0 0 0 0 0 0 0 0 0
0 0 0 0 0 0 0 0 0 0 0 0 0 0 0 0 0 0 0 0 0 0 0 0 0 0 0 0 0 0 0 0 0 0 0 0 0 0 0 0 0 0 0 0 0 0 0 0 0
0 0 0 0 0 0 0 0 0 0 0 0 0 0 0 0 0 0 0 0 0 0 0 0 0 0 0 0 0 0 0 0 0 0 0 0 0 0 0 0 0 0 0 0 0 0 0 0 0
0 0 0 0 0 0 0 0 0 0 0 0 0 0 0 0 0 0 0 0 0 0 0 0 0 0 0 0 0 0 0 0 0 0 0 0 0 0 0 0 0 0 0 0 0 0 0 0 0
0 0 0 0 0 0 0 0 0 0 0 0 0 0 0 0 0 0 0 0 0 0 0 0 0 0 0 0 0 0 0 0 0 0 0 0 0 0 0 0 0 0 0 0 0 0 0 0 0
0 0 0 0 0 0 0 0 0 0 0 0 0 0 0 0 0 0 0 0 0 0 0 0 0 0 0 0 0 0 0 0 0 0 0 0 0 0 0 0 0 0 0 0 0 0 0 0 0
0 0 0 0 0 0 0 0 0 0 0 0 0 0 0 0 0 0 0 0 0 0 0 0 0 0 0 0 0 0 0 0 0 0 0 0 0 0 0 0 0 0 0 0 0 0 0 0 0
0 0 0 0 0 0 0 0 0 0 0 0 0 0 0 0 0 0 0 0 0 0 0 0 0 0 0 0 0 0 0 0 0 0 0 0 0 0 0 0 0 0 0 0 0 0 0 0 0
0 0 0 0 0 0 0 0 0 0 0 0 0 0 0 0 0 0 0 0 0 0 0 0 0 0 0 0 0 0 0 0 0 0 0 0 0 0 0 0 0 0 0 0 0 0 0 0 0
0 0 0 0 0 0 0 0 0 0 0 0 0 0 0 0 0 0 0 0 0 0 0 0 0 0 -0 -0 0 0 0 0 0 0 0 0 0 0 0 0 0 0 0 0 0 0 0 0 0
0 0 0 0 0 0 0 0 0 0 0 0 0 0 0 0 0 0 0 0 0 0 0 0 0 0 -0 -0 0 0 0 0 0 0 0 0 0 0 0 0 0 0 0 0 0 0 0 0 0
0 0 0 0 0 0 0 0 0 0 0 0 0 0 0 0 0 0 0 0 0 0 0 0 0 -0 -0 0 0 0 0 0 0 0 0 0 0 0 0 0 0 0 0 0 0 0 0 0 0
0 0 0 0 0 0 0 0 0 0 0 0 0 0 0 0 0 0 0 0 0 0 0 0 0 -0 -0 0 0 0 0 0 0 0 0 0 0 0 0 0 0 0 0 0 0 0 0 0 0
0 0 0 0 0 0 0 0 0 0 0 0 0 0 0 0 0 0 0 0 0 0 0 0 0 -0 -0 0 0 0 0 0 0 0 0 0 0 0 0 0 0 0 0 0 0 0 0 0 0
0 0 0 0 0 0 0 0 0 0 0 0 0 0 0 0 0 0 0 0 0 0 0 0 0 0 0 0 0 0 0 0 0 0 0 0 0 0 0 0 0 0 0 0 0 0 0 0 0
Wind_Speed
4 2 2 3 5 5 6 4 3 4 3 2 2 0 0 1 2 4 5 4 4 2 2 3 5 5 6 6 7 8 8 8 8 9 9 9 10 10 10 11 11 10 10 11 11 11 11 11 11
3 1 3 4 6 8 6 5 6 3 4 4 2 1 2 3 5 5 3 4 3 2 2 3 5 6 6 7 8 8 8 8 8 9 9 9 9 10 10 11 11 11 10 10 11 11 11 10 10
1 1 2 4 6 7 4 4 4 4 4 2 3 2 2 3 3 3 3 3 2 3 3 4 6 7 7 7 8 8 8 8 8 8 8 9 9 9 10 11 11 11 10 10 10 10 10 9 9
2 3 2 4 7 4 1 3 5 7 4 1 2 4 3 3 2 3 3 2 2 4 4 5 6 7 7 7 8 8 8 9 9 9 8 9 9 9 10 10 11 11 10 10 9 9 9 9 9
2 3 4 5 6 3 1 2 5 6 5 3 3 3 4 3 3 3 3 2 3 4 4 5 7 7 8 8 8 8 9 9 9 9 9 8 9 9 10 10 10 10 10 9 9 9 9 9 9
3 3 6 8 8 4 3 3 5 4 4 3 3 3 4 4 3 3 2 2 3 4 4 5 7 7 8 9 8 9 9 9 9 9 9 9 8 9 9 9 9 9 9 9 8 8 9 9 9
3 3 5 6 6 6 4 5 5 5 5 4 3 4 5 4 2 2 2 3 4 4 4 4 5 5 7 8 9 9 9 9 9 9 9 9 9 9 9 9 8 8 8 8 8 8 8 8 8
1 2 4 5 6 5 5 5 2 4 3 2 3 4 3 4 3 2 3 3 4 4 4 4 4 4 3 5 8 9 8 9 9 9 9 9 8 8 8 8 8 8 8 8 8 7 7 7 7
2 5 7 6 5 4 6 6 3 0 3 3 2 1 3 6 5 4 3 3 3 4 3 3 3 4 3 3 5 6 7 7 6 7 8 6 4 4 5 7 8 7 7 7 7 7 7 6 6
3 6 6 1 1 3 6 5 5 5 5 4 3 2 3 7 6 6 4 3 2 2 2 2 2 3 3 2 2 2 3 3 3 3 4 3 3 3 4 6 7 7 6 6 6 6 5 3 2
2 3 2 2 1 3 5 4 4 6 6 6 6 6 7 7 7 6 5 4 3 2 1 2 2 2 2 1 1 1 1 2 2 3 3 2 2 2 3 2 3 3 3 2 3 3 2 2 2
3 1 1 1 1 3 4 4 5 7 4 1 2 6 8 8 7 7 6 4 3 3 1 1 1 1 2 1 1 1 1 1 2 2 2 2 1 2 2 2 2 2 2 2 2 1 2 2 2
3 2 1 1 2 2 2 5 4 6 5 1 3 6 8 8 7 6 5 4 4 3 2 1 1 1 1 1 1 1 1 1 1 1 1 2 1 1 2 1 2 2 2 2 2 2 2 1 2
2 3 2 1 2 2 4 5 5 7 5 5 5 7 7 8 8 7 6 5 5 4 3 2 1 1 1 0 0 1 1 1 1 1 1 1 1 1 1 1 1 2 2 2 2 2 1 1 1
3 2 2 3 3 3 3 8 10 6 5 7 7 7 7 8 8 8 7 7 6 5 4 3 2 1 1 1 0 1 1 1 1 1 1 1 1 1 1 1 1 1 1 1 1 1 1 1 1
3 4 5 3 4 3 6 11 4 4 7 8 8 7 8 8 9 8 7 7 6 5 5 4 2 2 2 1 1 1 1 1 1 1 1 1 1 0 1 0 1 1 1 1 1 1 1 1 1
4 6 7 4 3 3 7 10 2 4 7 8 8 8 8 8 9 9 8 7 7 6 5 5 4 3 2 2 2 2 2 1 1 1 1 1 1 1 1 0 0 1 1 1 1 1 1 1 1
5 6 7 7 3 5 9 13 8 6 8 10 9 9 10 10 10 9 8 8 6 6 6 5 4 4 2 2 2 2 2 2 2 1 2 2 1 1 1 1 0 0 0 1 1 1 1 1 1
4 6 8 6 2 6 11 15 13 9 10 12 11 11 11 11 10 8 8 8 7 6 6 6 5 4 3 2 3 3 3 3 2 2 2 3 2 2 2 1 1 1 1 1 1 1 1 1 1
6 8 9 6 2 6 9 15 13 11 12 12 12 12 12 10 9 9 9 9 9 8 8 7 6 6 5 4 3 3 3 3 3 2 3 3 3 3 2 2 2 2 1 1 1 1 1 1 1
8 10 9 7 4 5 8 12 8 6 7 9 10 10 10 10 10 9 10 10 9 9 9 7 7 6 6 5 3 2 3 3 3 3 3 3 4 4 3 3 3 3 2 2 2 2 2 2 2
8 6 7 6 6 5 3 9 6 5 6 7 8 8 8 8 9 9 9 9 9 9 8 8 7 7 6 5 5 5 5 5 5 4 3 4 5 5 4 4 4 4 3 3 3 3 3 3 2
3 2 4 6 7 7 6 8 8 3 6 6 5 6 6 6 7 7 8 9 8 8 7 7 7 7 6 6 7 7 6 5 4 4 5 5 4 5 5 5 4 4 4 4 4 4 4 3 3
2 1 2 4 5 9 8 9 9 5 5 3 2 3 4 5 5 6 6 7 7 7 6 6 6 7 7 7 7 8 8 7 6 6 5 5 4 4 6 5 5 5 4 5 4 4 5 4 5
3 4 4 4 6 7 4 9 10 5 4 4 4 3 3 3 3 4 5 6 7 7 7 6 7 7 7 7 7 7 8 8 9 8 7 6 4 4 5 6 5 5 5 5 5 5 5 5 6
6 6 6 7 7 6 5 10 7 3 3 4 4 4 4 3 3 4 5 6 6 7 7 7 7 7 7 7 7 7 7 6 6 8 7 7 5 5 5 5 6 6 6 5 5 5 6 5 6
5 6 4 5 5 8 8 7 8 4 4 3 3 3 3 3 3 3 4 5 5 6 7 7 7 7 7 7 7 6 7 7 7 7 7 6 6 5 6 6 6 6 6 6 6 5 6 6 6
3 3 4 6 7 10 9 9 6 5 4 3 3 3 3 2 3 4 4 5 5 5 6 7 7 7 7 7 6 5 6 7 7 7 7 7 7 6 7 7 7 6 7 7 6 6 6 7 6
6 5 5 5 6 7 9 7 2 5 3 3 3 3 3 3 4 4 5 5 5 5 5 6 6 7 6 7 7 6 6 7 7 7 7 7 7 7 7 7 7 7 7 7 7 7 7 8 7
6 7 7 7 7 7 9 8 1 2 1 2 4 4 5 5 4 4 5 5 5 5 5 5 6 6 6 6 6 6 6 6 7 7 7 7 7 7 7 7 8 8 8 8 8 8 8 8 8
Wind_Direction
336 307 236 219 206 216 223 195 170 151 146 91 64 187 152 58 1 69 70 35 16 19 31 48 40 59 64 67 69 66 64 62 61 60 59 61 62 60 63 64 66 69 71 70 70 72 74 74 78
329 274 218 215 226 218 208 192 186 155 110 118 110 108 116 91 49 69 79 23 7 31 45 59 49 59 65 70 72 69 67 65 64 61 58 57 60 62 63 65 63 67 70 70 72 70 71 76 77
248 276 221 202 226 234 196 155 162 122 122 148 129 69 42 81 86 86 45 19 20 48 51 66 57 64 67 70 74 72 69 67 66 63 60 57 59 64 64 64 63 64 66 68 70 70 70 75 78
218 182 193 223 217 231 263 129 142 146 148 149 161 134 110 53 68 62 53 42 69 66 56 67 65 68 68 70 71 74 72 68 63 61 62 59 60 64 65 64 62 61 63 66 68 68 67 72 79
224 206 197 214 222 199 186 147 166 174 165 162 185 159 133 102 76 79 71 66 79 68 59 65 61 69 67 69 68 69 71 70 65 60 61 61 60 63 64 63 61 60 60 64 65 69 67 69 76
182 210 217 220 211 192 180 175 179 190 169 160 183 168 130 116 111 92 73 74 80 79 63 69 57 63 66 64 66 65 66 67 65 60 59 59 61 62 62 62 61 60 60 60 66 69 67 68 68
211 209 229 224 213 206 183 170 196 195 189 180 196 174 140 154 123 106 90 85 81 79 73 68 71 69 70 64 62 64 63 63 62 58 54 53 55 61 60 59 60 60 59 56 59 67 68 66 66
260 194 209 214 217 213 157 164 196 211 189 125 202 202 160 165 147 137 116 96 82 74 70 68 69 64 82 83 64 62 61 59 59 57 52 51 52 59 59 54 52 54 54 53 51 63 67 65 64
221 219 224 216 215 188 160 177 155 146 147 159 199 337 45 135 153 155 144 118 91 71 64 65 68 60 64 89 78 72 65 59 58 60 53 54 58 59 60 53 45 47 49 50 50 53 60 64 68
214 227 231 222 223 167 168 187 166 176 188 196 196 170 127 150 167 174 172 158 135 96 74 63 66 64 58 78 93 88 77 69 65 68 66 61 56 49 44 51 43 43 45 50 50 51 57 50 71
198 224 185 164 121 160 172 183 182 202 217 218 210 182 166 171 181 189 189 182 172 149 105 78 67 65 54 63 85 83 74 70 65 63 61 58 62 58 49 53 42 40 39 51 56 61 48 32 33
151 161 189 142 146 181 189 182 198 224 239 337 210 166 169 183 192 199 198 196 186 178 163 114 76 71 61 52 87 94 90 82 72 58 55 58 57 54 49 43 28 24 17 17 26 27 38 29 29
185 164 133 126 132 170 191 213 232 236 243 246 163 170 185 193 202 206 206 202 200 198 194 187 148 103 84 59 86 88 101 101 97 82 60 51 61 58 58 44 32 24 14 8 7 14 27 27 25
140 154 166 196 197 203 224 240 245 243 222 205 190 192 198 202 204 203 206 209 212 212 207 210 219 211 172 134 105 118 117 128 124 101 76 56 59 60 57 45 30 22 9 358 346 2 0 14 3
145 162 211 219 218 204 237 246 233 229 196 202 204 206 207 211 209 211 212 214 214 217 217 222 221 223 215 208 222 181 160 164 144 130 134 87 58 76 74 47 27 7 354 353 348 3 343 356 355
176 215 233 187 200 201 232 256 217 185 196 211 213 214 216 217 218 219 218 218 216 215 216 221 227 228 234 225 226 218 192 189 187 171 170 136 81 79 117 83 10 346 346 344 347 343 332 330 324
206 236 246 220 193 210 231 259 225 187 209 223 223 223 225 226 227 225 222 219 217 216 216 218 223 226 231 233 236 228 207 199 211 204 189 181 161 198 182 181 347 315 329 343 330 338 301 300 314
225 239 251 248 197 229 240 254 255 227 229 238 237 234 232 232 230 225 222 219 217 217 218 222 222 226 226 228 229 226 209 210 210 216 205 203 197 207 208 200 200 290 304 335 310 297 295 279 299
250 247 258 267 263 254 252 263 266 248 240 245 243 239 237 237 236 227 223 220 218 217 217 220 224 220 213 218 227 230 219 212 213 219 219 213 211 215 223 213 200 222 232 274 292 280 264 299 299
239 251 261 271 274 263 276 273 270 253 242 242 243 241 237 237 233 226 222 219 218 218 218 220 222 220 219 225 234 247 229 217 214 211 222 220 215 217 224 218 207 212 220 224 239 266 250 253 251
239 249 260 271 296 249 285 272 242 238 238 243 244 244 241 235 232 225 220 218 219 220 220 221 223 222 222 223 225 238 220 212 216 215 219 222 220 215 220 221 213 210 217 218 225 231 241 240 235
249 249 258 263 269 267 283 283 253 242 248 242 241 237 239 236 233 227 221 219 220 222 221 223 224 223 220 216 218 223 229 223 224 218 218 221 220 216 216 221 216 210 214 218 221 222 233 232 235
253 276 248 249 250 264 236 258 266 226 250 246 239 237 240 237 232 228 225 223 224 224 223 224 224 222 220 221 225 229 237 236 224 216 219 221 223 221 216 220 220 211 212 216 217 220 226 230 233
192 216 224 221 232 251 230 236 266 229 237 249 241 251 251 246 238 233 230 229 227 224 221 221 222 224 224 224 227 230 233 233 224 219 220 222 221 223 221 217 222 217 213 216 219 220 223 228 232
213 228 245 231 227 245 182 235 255 255 246 250 263 272 264 253 248 239 229 227 226 223 222 223 226 229 228 228 229 233 234 233 230 222 221 224 223 224 224 219 221 218 214 214 220 222 223 226 230
211 233 241 257 264 267 210 239 252 264 255 254 267 280 276 262 255 252 242 233 231 229 228 227 229 233 231 233 237 237 239 236 236 231 224 225 227 226 224 228 230 222 216 215 218 223 225 226 229
204 225 268 268 273 271 247 251 270 237 243 241 254 272 279 271 264 265 261 250 242 235 233 232 233 236 235 236 237 239 238 240 239 235 230 231 232 228 222 222 233 231 219 217 220 225 225 227 230
269 206 195 218 248 258 258 249 242 218 230 244 256 269 287 292 278 281 274 269 260 248 241 237 236 238 237 237 237 241 243 244 240 232 230 229 231 231 225 223 226 235 229 220 221 228 227 230 232
194 201 219 233 251 257 268 258 221 214 224 249 266 298 305 298 291 291 287 280 273 258 244 240 241 242 242 240 240 241 246 244 238 232 232 231 230 229 227 225 224 230 231 227 223 227 227 230 233
239 229 208 229 238 241 263 269 68 207 276 301 302 303 301 294 293 293 288 286 273 260 253 249 246 243 243 243 242 243 248 243 237 236 236 233 232 232 231 226 224 228 232 228 228 226 227 229 232